[[{"header":{"parameterUnit":"m.s-1","parameterCategory":1,"la1":30.2992,"la2":30.254,"lo1":-89.0895,"lo2":-89.0443,"dy":0.0025,"dx":0.0025,"nx":19,"ny":19,"refTime":"2026-05-04T21:00:00:Z","depth":0,"parameterNumber":2,"parameterNumberName":"U-component_of_WINDS"},"data":[0,0,0,-0.0102,-0.0103,-0.0134,-0.0134,-0.016,-0.016,0,0,0,0,0,0,0,0,0,0,0,-0.0083,-0.0083,-0.0102,-0.0103,-0.0134,-0.0134,-0.0159,-0.016,0,0,0,0,0,0,0,0,0,0,0,-0.0083,-0.0083,-0.0083,-0.0103,-0.0134,-0.0134,-0.0159,-0.0141,0,0,0,0,0,0,0,0,0,0,-0.0113,-0.0086,-0.0083,-0.0083,-0.0103,-0.0134,-0.0134,-0.0141,-0.0142,-0.0139,0,-0.0132,0,-0.0146,-0.016,-0.016,0,0,0,-0.011,-0.0085,-0.0102,-0.0083,-0.0103,-0.0134,-0.0122,-0.0142,-0.0144,-0.0141,-0.0133,-0.0134,-0.0147,-0.016,-0.016,-0.0115,-0.0114,0,0,-0.0108,-0.0084,-0.01,-0.0103,-0.0096,-0.0121,-0.0123,-0.0143,-0.0133,-0.0133,-0.0135,-0.0147,-0.016,-0.016,-0.0115,-0.0115,0,0,0,-0.0098,-0.0082,-0.0099,-0.0101,-0.0108,-0.0122,-0.0124,-0.0132,-0.014,-0.0136,-0.0147,-0.016,-0.0161,-0.0116,-0.0115,-0.0064,0,0,0,-0.0098,-0.0077,-0.0098,-0.0084,-0.0107,-0.012,-0.0112,-0.0138,-0.0141,-0.0147,-0.016,-0.0161,-0.0117,-0.0116,-0.0067,-0.0043,0,0,0,-0.0084,-0.0075,-0.0076,-0.0082,-0.0095,-0.0121,-0.013,-0.014,-0.0148,-0.016,-0.0161,-0.0117,-0.0116,-0.0069,-0.0048,-0.0024,0,0,0,-0.0064,-0.003,-0.0075,-0.0043,-0.0094,-0.0089,-0.013,-0.0127,-0.0131,-0.0161,-0.0117,-0.0115,-0.007,-0.005,-0.0027,0.0,0.0014,0,0,-0.0008,-0.0023,-0.0006,-0.0047,-0.0027,-0.0086,-0.0059,-0.0086,-0.011,-0.0112,-0.0111,-0.0066,-0.0048,-0.0025,0.0079,0.009,0,0,0,0.002,0.0033,0.0033,0.003,0.001,-0.0006,-0.0039,-0.005,-0.0053,-0.0106,-0.0052,-0.0042,-0.003,-0.0018,-0.0009,0.0001,-0.0109,-0.0109,-0.0109,0.0134,0.0102,0.0128,0.0092,0.009,0.0054,0.0049,0.0029,-0.0003,0.001,0.001,0.0077,0.0092,0.0098,0.0108,0.0021,0.0021,0.0021,0.0021,0.0213,0.0226,0.0182,0.0192,0.0157,0.0165,0.0131,0.0109,0.011,0.0075,0.0084,0.0049,0.0111,0.0118,0.0025,0.0024,0.0024,0.0023,0.0023,0.0284,0.0285,0.0272,0.0264,0.0261,0.0223,0.0227,0.0195,0.0165,0.0174,0.017,0.0169,0.0165,0.0174,0.0175,0.0175,0.0175,0.0175,0.0175,0.0364,0.0348,0.0355,0.0336,0.033,0.0317,0.0281,0.0274,0.0257,0.0234,0.0234,0.0201,0.0123,0.0105,0.0179,0.0178,0.0178,0.0177,0.0177,0.0457,0.0431,0.0442,0.0436,0.0411,0.041,0.0369,0.0357,0.0346,0.0349,0.0313,0.0261,0.0243,0.0236,0.022,0.032,0.032,0.032,0.032,0.0518,0.0505,0.051,0.0502,0.049,0.0454,0.0467,0.0439,0.0406,0.0397,0.0378,0.0354,0.0348,0.0334,0.0324,0.0309,0.0429,0.0429,0.0429,0.0573,0.0558,0.0576,0.0543,0.0521,0.0503,0.0514,0.0506,0.0462,0.0433,0.0389,0.0385,0.0346,0.0335,0.0307,0.0292,0.0264,0,0]},{"header":{"parameterUnit":"m.s-1","parameterCategory":1,"la1":30.2992,"la2":30.254,"lo1":-89.0895,"lo2":-89.0443,"dy":0.0025,"dx":0.0025,"nx":19,"ny":19,"refTime":"2026-05-04T21:00:00:Z","depth":0,"parameterNumber":3,"parameterNumberName":"V-component_of_WINDS"},"data":[0,0,0,6.8763,6.8765,6.8851,6.8851,6.8967,6.8969,0,0,0,0,0,0,0,0,0,0,0,6.8746,6.8747,6.8763,6.8766,6.8851,6.8851,6.8967,6.8969,0,0,0,0,0,0,0,0,0,0,0,6.8745,6.8746,6.8748,6.8766,6.8851,6.8851,6.8967,6.8899,0,0,0,0,0,0,0,0,0,0,6.8815,6.8807,6.8746,6.8748,6.8767,6.8851,6.8851,6.8896,6.8903,6.8933,0,6.8964,0,6.8968,6.8977,6.8978,0,0,0,6.8759,6.88,6.8817,6.8748,6.8767,6.8851,6.881,6.89,6.8909,6.8943,6.8965,6.8969,6.897,6.8978,6.8979,6.9177,6.9178,0,0,6.8754,6.8764,6.8811,6.8823,6.8814,6.8808,6.8813,6.8905,6.8929,6.8966,6.8972,6.8972,6.8979,6.898,6.9176,6.9177,0,0,0,6.8745,6.8761,6.8775,6.8818,6.8833,6.881,6.8817,6.8925,6.8929,6.8973,6.8974,6.8979,6.8981,6.9175,6.9176,6.9248,0,0,0,6.8742,6.8756,6.8774,6.878,6.8832,6.8881,6.8835,6.8922,6.8932,6.8973,6.898,6.8982,6.9173,6.9176,6.9243,6.9279,0,0,0,6.8737,6.8755,6.8771,6.8781,6.8818,6.8879,6.8888,6.8924,6.8933,6.8978,6.8983,6.9172,6.9175,6.9239,6.9272,6.9335,0,0,0,6.8734,6.8832,6.8772,6.888,6.8818,6.8924,6.8887,6.8965,6.9012,6.898,6.9173,6.9176,6.9237,6.9268,6.933,6.9389,6.9414,0,0,6.8862,6.8847,6.891,6.8859,6.8979,6.891,6.9039,6.9071,6.9064,6.9139,6.9144,6.9245,6.9272,6.9334,6.9556,6.9576,0,0,0,6.8954,6.9,6.9029,6.9076,6.9105,6.9131,6.9143,6.9155,6.9218,6.9106,6.9284,6.93,6.9335,6.9363,6.938,6.941,6.919,6.9189,6.9189,6.9148,6.9138,6.924,6.924,6.9285,6.9297,6.9332,6.9349,6.9322,6.9365,6.9386,6.9523,6.9556,6.9569,6.96,6.9417,6.9417,6.9418,6.9418,6.9334,6.9396,6.9361,6.9449,6.9435,6.9507,6.9521,6.95,6.9564,6.9506,6.9536,6.9473,6.9592,6.9618,6.9423,6.9422,6.9421,6.9421,6.9421,6.946,6.9488,6.9502,6.9569,6.962,6.9615,6.9678,6.9663,6.9648,6.9679,6.97,6.9699,6.9695,6.969,6.9691,6.9691,6.9692,6.9692,6.9692,6.9584,6.9598,6.9655,6.9694,6.9722,6.9756,6.9769,6.9795,6.9819,6.9803,6.9803,6.9772,6.9606,6.9564,6.97,6.9698,6.9698,6.9697,6.9696,6.9776,6.973,6.9818,6.9846,6.989,6.9942,6.9922,6.9976,6.9995,7.0027,6.9989,6.987,6.9852,6.9838,6.9803,6.9992,6.9992,6.9992,6.9992,6.9881,6.9872,6.9958,7.0004,7.0047,7.0038,7.0134,7.0145,7.0147,7.0158,7.0128,7.0081,7.0068,7.0058,7.0039,7.0006,7.0243,7.0243,7.0243,6.9998,6.9992,7.0078,7.0083,7.0117,7.0145,7.0235,7.0286,7.0279,7.0253,7.0165,7.0155,7.0079,7.0055,7.0026,6.9997,6.9936,0,0]}]]